Weather Roundup
Issued by NWS Corpus Christi, TX

Home | Current Version | Previous Version | Text Only | Print | Product List | Glossary On
Versions: 1 2 3 4 5 6 7 8 9 10 11 12 13 14 15 16 17 18 19 20 21 22 23 24 25 26 27 28 29 30 31 32 33 34 35 36 37 38 39 40 41 42 43 44 45 46 47 48 49 50
000
ASUS44 KCRP 131810
HRRCRP

SOUTH TEXAS REGIONAL WEATHER ROUNDUP
NATIONAL WEATHER SERVICE CORPUS CHRISTI TX
1200 PM CST WED DEC 13 2017


TXZ229>244-131900-
...CORPUS CHRISTI AREA OBSERVATIONS...

CITY           SKY/WX    TMP DP  RH WIND       PRES   REMARKS
CORPUS CHRISTI CLOUDY    62  42  47 S8        30.17F
NAS CORPUS CHR CLOUDY    63  48  58 N5        30.17F
ROCKPORT       MOSUNNY   61  40  45 SE7       30.16F
KINGSVILLE ARP FAIR      63  45  52 S3        30.18F
KINGSVILLE NAS CLOUDY    63  44  50 S6        30.17F
ALICE          MOSUNNY   64  37  36 SW10      30.16F
$$

...VICTORIA AREA OBSERVATIONS...

CITY           SKY/WX    TMP DP  RH WIND       PRES   REMARKS
PORT LAVACA    MOSUNNY   61  33  35 S3        30.17F
VICTORIA       CLOUDY    61  31  32 S6        30.16F
BEEVILLE       FAIR      62  34  35 S8        30.16F
PLEASANTON     CLOUDY    57  32  38 SW6       30.17F
SAN ANTONIO    CLOUDY    55  30  38 SW7       30.16F
$$

...LAREDO AREA OBSERVATIONS...

CITY           SKY/WX    TMP DP  RH WIND       PRES   REMARKS
LAREDO         SUNNY    N/A N/A N/A S12       30.19F
COTULLA        PTSUNNY   58  34  40 SW6       30.16F
DEL RIO        CLOUDY    49  36  61 CALM      30.15F
MCALLEN        CLOUDY    62  42  47 W3        30.19F
HEBBRONVILLE   PTSUNNY   60  33  35 SW8       30.17F
$$

...OTHER TEXAS OBSERVATIONS...

CITY           SKY/WX    TMP DP  RH WIND       PRES   REMARKS
BROWNSVILLE    MOSUNNY   68  44  42 CALM      30.18F
HOUSTON        CLOUDY    56  29  35 SW9       30.16F
COL. STATION   CLOUDY    53  34  48 SW10      30.14F
AUSTIN         CLOUDY    56  32  40 SW13      30.13F
WACO           SUNNY     62  29  28 SW10      30.08F
FORT WORTH     MOSUNNY   68  20  16 SW12      29.98F
WICHITA FALLS  SUNNY     62  17  17 W10       29.97F
LUBBOCK        SUNNY     62  11  13 NW15      30.02F
EL PASO        MOSUNNY   50  12  21 CALM      30.16F
$$

...MARINE OBSERVATIONS...

STATION/POSITION TIME  SKY/WX   TEMP    WIND        PRES    VSBY  WAVE   SWELL
                                AIR SEA DIR/SP/G                  HT/PER HT/PER
                 (UTC)          (F)     (DEG/KT/KT) (MB)    (MI)  (FT/S) (FT/S)
PORT ARANSAS     NOT AVBL
BUOY 90 E PORT A 1750            63 74  220/  2/  4 1021.0F         1/ 4   2/ 4
BUOY 200 E PT IS 1750            67 77  210/  2/  4 1021.1F         2/ 5   2/ 5
BUOY 15 E GALVES 1650            57 60  210/  6/  8 1022.4          1
$$




USA.gov is the U.S. government's official web portal to all federal, state and local government web resources and services.